TimeEDT,TemperatureF,Dew PointF,Humidity,Sea Level PressureIn,VisibilityMPH,Wind Direction,Wind SpeedMPH,Gust SpeedMPH,PrecipitationIn,Events,Conditions,WindDirDegrees,DateUTC
12:51 AM,61.0,55.9,83,30.02,10.0,NNW,3.5,-,N/A,,Mostly Cloudy,340,2013-08-30 04:51:00
1:51 AM,61.0,57.0,87,30.01,10.0,Calm,Calm,-,N/A,,Overcast,0,2013-08-30 05:51:00
2:31 AM,62.1,57.0,84,30.00,10.0,Calm,Calm,-,N/A,,Overcast,0,2013-08-30 06:31:00
2:51 AM,62.1,57.0,84,29.99,10.0,Calm,Calm,-,N/A,,Overcast,0,2013-08-30 06:51:00
3:51 AM,62.1,57.0,84,29.97,10.0,Calm,Calm,-,N/A,,Overcast,0,2013-08-30 07:51:00
4:51 AM,62.1,57.0,84,29.97,10.0,Calm,Calm,-,N/A,,Overcast,0,2013-08-30 08:51:00
5:51 AM,62.1,57.9,86,29.96,10.0,Calm,Calm,-,N/A,,Overcast,0,2013-08-30 09:51:00
6:51 AM,62.1,57.0,84,29.96,10.0,WSW,5.8,-,N/A,,Overcast,240,2013-08-30 10:51:00
7:51 AM,63.0,57.0,81,29.96,10.0,WSW,4.6,-,N/A,,Mostly Cloudy,240,2013-08-30 11:51:00
8:51 AM,64.9,57.0,75,29.96,10.0,WSW,6.9,-,N/A,,Overcast,240,2013-08-30 12:51:00
9:43 AM,68.0,59.0,73,29.93,10.0,SW,8.1,-,N/A,,Scattered Clouds,220,2013-08-30 13:43:00
9:51 AM,68.0,59.0,73,29.93,10.0,West,8.1,-,N/A,,Partly Cloudy,270,2013-08-30 13:51:00
10:51 AM,72.0,61.0,68,29.91,10.0,West,9.2,-,N/A,,Scattered Clouds,270,2013-08-30 14:51:00
11:51 AM,73.9,62.1,66,29.89,10.0,NW,5.8,-,N/A,,Scattered Clouds,310,2013-08-30 15:51:00
12:51 PM,78.1,62.1,58,29.87,10.0,Variable,3.5,-,N/A,,Scattered Clouds,0,2013-08-30 16:51:00
1:51 PM,79.0,64.0,60,29.84,10.0,Variable,3.5,-,N/A,,Scattered Clouds,0,2013-08-30 17:51:00
2:51 PM,78.1,64.0,62,29.83,10.0,South,9.2,-,N/A,,Mostly Cloudy,170,2013-08-30 18:51:00
3:51 PM,75.9,64.0,67,29.81,10.0,SSE,8.1,-,N/A,,Partly Cloudy,160,2013-08-30 19:51:00
4:51 PM,75.0,64.0,69,29.81,10.0,South,9.2,-,N/A,,Scattered Clouds,180,2013-08-30 20:51:00
5:51 PM,75.0,64.0,69,29.79,10.0,South,10.4,-,N/A,,Clear,180,2013-08-30 21:51:00
6:51 PM,71.1,63.0,75,29.80,10.0,South,4.6,-,N/A,,Partly Cloudy,170,2013-08-30 22:51:00
7:51 PM,70.0,63.0,78,29.80,10.0,SSW,5.8,-,N/A,,Clear,210,2013-08-30 23:51:00
8:51 PM,69.1,63.0,81,29.80,10.0,Calm,Calm,-,N/A,,Clear,0,2013-08-31 00:51:00
9:51 PM,69.1,63.0,81,29.79,10.0,SW,3.5,-,N/A,,Clear,230,2013-08-31 01:51:00
10:51 PM,68.0,63.0,84,29.78,10.0,SSW,3.5,-,N/A,,Clear,200,2013-08-31 02:51:00
11:51 PM,69.1,64.0,84,29.78,10.0,SSW,3.5,-,N/A,,Clear,210,2013-08-31 03:51:00